When you browse on this site, cookies collect data to enhance your experience and personalize the content and advertising you see.
Visit our Privacy Policy to learn more. By continuing to use the site, you agree to this use of cookies and data.
  • în România
  • Lista ţărilor
  • Pe 7 zile
  • Temperatura apei
  • Hartă satelitară
  • Meteo pe hartă
  • Widget-uri
  • user-avatar
    Intrare

    Meteo pe oră la Maskat

    Astăzi, 20 Mai, Luni

    Timp Temperatura Precipitaţii Vânt Presiune Umiditate
    00:00 +35°C° 0 mm 3 m/s 751 mmHg 49%
    01:00 +35°C° 0 mm 3 m/s 751 mmHg 49%
    02:00 +35°C° 0 mm 3 m/s 751 mmHg 48%
    03:00 +35°C° 0 mm 2 m/s 751 mmHg 48%
    04:00 +34°C° 0 mm 2 m/s 751 mmHg 48%
    05:00 +34°C° 0 mm 2 m/s 751 mmHg 47%
    06:00 +33°C° 0 mm 1 m/s 751 mmHg 46%
    07:00 +34°C° 0 mm 1 m/s 751 mmHg 46%
    08:00 +35°C° 0 mm 1 m/s 751 mmHg 41%
    09:00 +37°C° 0 mm 2 m/s 751 mmHg 37%
    10:00 +38°C° 0 mm 3 m/s 752 mmHg 33%
    11:00 +40°C° 0 mm 4 m/s 752 mmHg 33%
    12:00 +41°C° 0 mm 5 m/s 751 mmHg 32%
    13:00 +41°C° 0 mm 6 m/s 751 mmHg 32%
    14:00 +41°C° 0.2 mm 6 m/s 751 mmHg 34%
    15:00 +40°C° 0.2 mm 6 m/s 750 mmHg 37%
    16:00 +39°C° 0.2 mm 6 m/s 750 mmHg 39%
    17:00 +39°C° 0.1 mm 6 m/s 750 mmHg 38%
    18:00 +40°C° 0.1 mm 5 m/s 750 mmHg 37%
    19:00 +40°C° 0.1 mm 5 m/s 750 mmHg 36%
    20:00 +38°C° 0.3 mm 6 m/s 750 mmHg 45%
    21:00 +34°C° 0.3 mm 7 m/s 751 mmHg 55%
    22:00 +32°C° 0.3 mm 8 m/s 751 mmHg 65%
    23:00 +32°C° 0.3 mm 6 m/s 751 mmHg 62%

    Mâine, 21 Mai, Marţi

    Timp Temperatura Precipitaţii Vânt Presiune Umiditate
    00:00 +33°C° 0.3 mm 5 m/s 750 mmHg 60%
    01:00 +34°C° 0.3 mm 4 m/s 750 mmHg 57%
    02:00 +34°C° 0 mm 3 m/s 750 mmHg 55%
    03:00 +35°C° 0 mm 3 m/s 750 mmHg 53%
    04:00 +35°C° 0 mm 3 m/s 750 mmHg 52%
    05:00 +35°C° 0 mm 3 m/s 750 mmHg 52%
    06:00 +35°C° 0 mm 3 m/s 750 mmHg 52%
    07:00 +35°C° 0 mm 2 m/s 751 mmHg 52%
    08:00 +36°C° 0 mm 2 m/s 751 mmHg 47%
    09:00 +38°C° 0 mm 2 m/s 751 mmHg 42%
    10:00 +39°C° 0 mm 1 m/s 751 mmHg 37%
    11:00 +40°C° 0 mm 2 m/s 750 mmHg 34%
    12:00 +42°C° 0 mm 4 m/s 750 mmHg 31%
    13:00 +43°C° 0 mm 5 m/s 750 mmHg 28%
    14:00 +41°C° 0 mm 4 m/s 750 mmHg 34%
    15:00 +40°C° 0 mm 4 m/s 749 mmHg 40%
    16:00 +37°C° 0 mm 3 m/s 749 mmHg 46%
    17:00 +37°C° 0 mm 3 m/s 749 mmHg 47%
    18:00 +37°C° 0 mm 2 m/s 749 mmHg 48%
    19:00 +35°C° 0 mm 1 m/s 749 mmHg 49%
    20:00 +35°C° 0 mm 1 m/s 750 mmHg 50%
    21:00 +35°C° 0 mm 1 m/s 750 mmHg 51%
    22:00 +35°C° 0 mm 1 m/s 750 mmHg 53%
    23:00 +34°C° 0 mm 1 m/s 750 mmHg 53%

    Poimâine, 22 Mai, Miercuri

    Timp Temperatura Precipitaţii Vânt Presiune Umiditate
    00:00 +35°C° 0 mm 2 m/s 750 mmHg 53%
    01:00 +35°C° 0 mm 2 m/s 750 mmHg 54%
    02:00 +35°C° 0 mm 2 m/s 749 mmHg 53%
    03:00 +34°C° 0 mm 2 m/s 749 mmHg 53%
    04:00 +33°C° 0 mm 1 m/s 749 mmHg 52%
    05:00 +34°C° 0 mm 1 m/s 749 mmHg 50%
    06:00 +34°C° 0 mm 1 m/s 750 mmHg 47%
    07:00 +35°C° 0 mm 1 m/s 750 mmHg 45%
    08:00 +38°C° 0 mm 2 m/s 750 mmHg 34%
    09:00 +39°C° 0 mm 3 m/s 750 mmHg 23%
    10:00 +42°C° 0 mm 4 m/s 751 mmHg 13%
    11:00 +42°C° 0 mm 4 m/s 750 mmHg 14%
    12:00 +42°C° 0 mm 5 m/s 750 mmHg 15%
    13:00 +43°C° 0 mm 5 m/s 750 mmHg 17%
    14:00 +42°C° 0 mm 4 m/s 749 mmHg 19%
    15:00 +40°C° 0 mm 3 m/s 749 mmHg 21%
    16:00 +39°C° 0 mm 1 m/s 748 mmHg 23%
    17:00 +39°C° 0 mm 2 m/s 748 mmHg 22%
    18:00 +38°C° 0 mm 2 m/s 749 mmHg 21%
    19:00 +38°C° 0 mm 2 m/s 749 mmHg 20%
    20:00 +38°C° 0 mm 2 m/s 749 mmHg 21%
    21:00 +38°C° 0 mm 3 m/s 750 mmHg 21%
    22:00 +38°C° 0 mm 3 m/s 750 mmHg 22%
    23:00 +37°C° 0 mm 3 m/s 749 mmHg 22%

    23 Mai, Joi

    Timp Temperatura Precipitaţii Vânt Presiune Umiditate
    00:00 +36°C° 0 mm 3 m/s 749 mmHg 23%
    01:00 +36°C° 0 mm 3 m/s 748 mmHg 24%
    02:00 +36°C° 0 mm 3 m/s 748 mmHg 22%
    03:00 +35°C° 0 mm 3 m/s 748 mmHg 21%
    04:00 +35°C° 0 mm 3 m/s 748 mmHg 19%
    05:00 +36°C° 0 mm 3 m/s 748 mmHg 17%
    06:00 +37°C° 0 mm 3 m/s 749 mmHg 14%
    07:00 +38°C° 0 mm 3 m/s 749 mmHg 12%
    08:00 +41°C° 0 mm 4 m/s 749 mmHg 11%
    09:00 +42°C° 0 mm 5 m/s 749 mmHg 10%
    10:00 +45°C° 0 mm 6 m/s 750 mmHg 9%
    11:00 +45°C° 0 mm 6 m/s 749 mmHg 9%
    12:00 +46°C° 0 mm 6 m/s 749 mmHg 8%
    13:00 +46°C° 0 mm 6 m/s 748 mmHg 8%
    14:00 +45°C° 0 mm 6 m/s 748 mmHg 10%
    15:00 +43°C° 0 mm 5 m/s 747 mmHg 13%
    16:00 +43°C° 0 mm 5 m/s 747 mmHg 15%
    17:00 +41°C° 0 mm 4 m/s 747 mmHg 17%
    18:00 +39°C° 0 mm 3 m/s 748 mmHg 20%
    19:00 +38°C° 0 mm 2 m/s 748 mmHg 22%
    20:00 +38°C° 0 mm 2 m/s 748 mmHg 23%
    21:00 +37°C° 0 mm 2 m/s 749 mmHg 24%
    22:00 +37°C° 0 mm 3 m/s 749 mmHg 25%
    23:00 +37°C° 0 mm 3 m/s 749 mmHg 25%

    24 Mai, Vineri

    Timp Temperatura Precipitaţii Vânt Presiune Umiditate
    00:00 +37°C° 0 mm 3 m/s 749 mmHg 26%
    01:00 +36°C° 0 mm 3 m/s 748 mmHg 26%
    02:00 +36°C° 0 mm 3 m/s 748 mmHg 24%
    03:00 +36°C° 0 mm 3 m/s 748 mmHg 21%
    04:00 +36°C° 0 mm 3 m/s 748 mmHg 18%
    05:00 +37°C° 0 mm 3 m/s 748 mmHg 16%
    06:00 +37°C° 0 mm 3 m/s 749 mmHg 14%
    07:00 +38°C° 0 mm 2 m/s 749 mmHg 12%
    08:00 +40°C° 0 mm 3 m/s 749 mmHg 11%
    09:00 +42°C° 0 mm 3 m/s 750 mmHg 10%
    10:00 +44°C° 0 mm 3 m/s 750 mmHg 9%
    11:00 +44°C° 0 mm 4 m/s 750 mmHg 10%
    12:00 +44°C° 0 mm 4 m/s 749 mmHg 10%
    13:00 +44°C° 0 mm 4 m/s 749 mmHg 11%
    14:00 +43°C° 0 mm 4 m/s 748 mmHg 13%
    15:00 +42°C° 0 mm 3 m/s 748 mmHg 16%
    16:00 +42°C° 0 mm 3 m/s 748 mmHg 18%
    17:00 +40°C° 0 mm 2 m/s 748 mmHg 18%
    18:00 +39°C° 0 mm 2 m/s 748 mmHg 19%
    19:00 +39°C° 0 mm 2 m/s 748 mmHg 20%
    20:00 +37°C° 0 mm 1 m/s 749 mmHg 20%
    21:00 +37°C° 0 mm 1 m/s 749 mmHg 20%
    22:00 +37°C° 0 mm 1 m/s 749 mmHg 20%
    23:00 +36°C° 0 mm 1 m/s 749 mmHg 20%

    25 Mai, Sâmbătă

    Timp Temperatura Precipitaţii Vânt Presiune Umiditate
    00:00 +36°C° 0 mm 1 m/s 749 mmHg 19%
    01:00 +34°C° 0 mm 0 m/s 748 mmHg 19%
    02:00 +35°C° 0 mm 1 m/s 748 mmHg 19%
    03:00 +35°C° 0 mm 1 m/s 748 mmHg 19%
    04:00 +35°C° 0 mm 2 m/s 748 mmHg 19%
    05:00 +36°C° 0 mm 2 m/s 748 mmHg 20%
    06:00 +36°C° 0 mm 2 m/s 749 mmHg 21%
    07:00 +37°C° 0 mm 2 m/s 749 mmHg 22%
    08:00 +38°C° 0 mm 2 m/s 750 mmHg 20%
    09:00 +39°C° 0 mm 2 m/s 750 mmHg 19%
    10:00 +40°C° 0 mm 1 m/s 750 mmHg 17%
    11:00 +40°C° 0 mm 2 m/s 750 mmHg 17%
    12:00 +42°C° 0 mm 3 m/s 749 mmHg 17%
    13:00 +42°C° 0 mm 3 m/s 749 mmHg 18%
    14:00 +42°C° 0 mm 3 m/s 748 mmHg 19%
    15:00 +42°C° 0 mm 3 m/s 748 mmHg 20%
    16:00 +42°C° 0 mm 3 m/s 748 mmHg 21%
    17:00 +40°C° 0 mm 3 m/s 748 mmHg 23%
    18:00 +39°C° 0 mm 3 m/s 748 mmHg 24%
    19:00 +38°C° 0 mm 3 m/s 748 mmHg 25%
    20:00 +38°C° 0 mm 3 m/s 748 mmHg 27%
    21:00 +37°C° 0 mm 3 m/s 749 mmHg 29%
    22:00 +37°C° 0 mm 3 m/s 749 mmHg 30%
    23:00 +36°C° 0 mm 2 m/s 748 mmHg 30%
    Arată mai mult